Printer-friendly version

IAU Minor Planet Center

Minor Planet Center

MPEC 2004-D11 : 2004 DK1

The following Minor Planet Electronic Circular may be linked-to from your own Web pages, but must not otherwise be redistributed electronically.


Read MPEC 2004-D10 Read MPEC 2004-D12


M.P.E.C. 2004-D11                                Issued 2004 Feb. 19, 19:39 UT

     The Minor Planet Electronic Circulars contain information on unusual
         minor planets and routine data on comets.  They are published
   on behalf of Commission 20 of the International Astronomical Union by the
          Minor Planet Center, Smithsonian Astrophysical Observatory,
                          Cambridge, MA 02138, U.S.A.

         Supported in part by the Steven and Michele Kirsch Foundation
             Prepared using the Tamkin Foundation Computer Network

                              MPC@CFA.HARVARD.EDU
          URL http://cfa-www.harvard.edu/iau/mpc.html  ISSN 1523-6714

                                   2004 DK1

Observations:
     K04D01K* C2004 02 17.32853 11 11 07.21 +10 08 23.5          18.9   ED011704
     K04D01K  C2004 02 17.34086 11 11 07.74 +10 08 22.3          19.2   ED011704
     K04D01K  C2004 02 17.35331 11 11 08.37 +10 08 20.1          19.0   ED011704
     K04D01K  C2004 02 17.36519 11 11 08.91 +10 08 17.9          19.1   ED011704
     K04D01K  C2004 02 17.37704 11 11 09.50 +10 08 16.5          19.4   ED011704
     K04D01K  C2004 02 18.17924 11 11 56.20 +10 06 11.3          19.0 R ED011493
     K04D01K  C2004 02 18.18017 11 11 56.27 +10 06 11.1          19.1 R ED011493
     K04D01K  C2004 02 18.18144 11 11 56.32 +10 06 10.8          19.2 R ED011493
     K04D01K  C2004 02 18.38766 11 12 09.64 +10 05 43.4          19.8 R ED011854
     K04D01K  C2004 02 18.39425 11 12 09.91 +10 05 42.0          19.9 R ED011854
     K04D01K  C2004 02 18.40085 11 12 10.20 +10 05 41.5          19.7 R ED011854
     K04D01K  C2004 02 19.36708 11 13 08.16 +10 03 12.9          18.7 R ED011926
     K04D01K  C2004 02 19.37252 11 13 08.45 +10 03 12.1          18.9 R ED011926
     K04D01K  C2004 02 19.37906 11 13 08.78 +10 03 11.0          18.9 R ED011926

Observer details:
493 Calar Alto.  Observers M. Buchmann, M. Busch, F. Hormuth.  1.52-m
    reflector + CCD.
704 Lincoln Laboratory ETS, New Mexico.  Observers M. Blythe, F. Shelly,
    M. Bezpalko, R. Huber, L. Manguso, D. Torres, R. Kracke, M. McCleary,
    H. Stange, A. Milner.  Measurers J. Stuart, R. Sayer, J. Evans, J. Kommers.
    1.0-m f/2.15 reflector + CCD.
854 Sabino Canyon Observatory, Tucson.  Observer J. E. McGaha.  0.356-m f/10.0
    Schmidt-Cassegrain + CCD.
926 Tenagra II Observatory.  Observers P. R. Holvorcem, M. Schwartz.  0.81-m
    f/7 Ritchey-Chretien + CCD.

Orbital elements:
2004 DK1
Epoch 2004 Feb. 5.0 TT = JDT 2453040.5                  MPC
M 330.41237              (2000.0)            P               Q
n   0.43179189     Peri.  161.27960     -0.91892080     +0.39428069
a   1.7336166      Node    41.94714     -0.36401438     -0.83667020
e   0.3645923      Incl.    0.96718     -0.15191478     -0.38016537
P   2.28           H   21.4           G   0.15
From 14 observations 2004 Feb. 17-19.

Ephemeris:
2004 DK1                 a,e,i = 1.73, 0.36, 1                   q = 1.1016
Date    TT    R. A. (2000) Decl.     Delta      r     Elong.  Phase     V
2004 02 15    11 08.80   +10 14.5    0.261    1.237   160.8    15.2    19.8
2004 02 25    11 18.83   +09 47.6    0.212    1.198   167.9    10.0    19.1
2004 03 06    11 30.22   +09 04.6    0.173    1.164   173.4     5.6    18.4
2004 03 16    11 45.20   +07 42.7    0.143    1.137   174.0     5.3    17.9
2004 03 26    12 06.27   +05 13.7    0.120    1.117   171.7     7.4    17.6
2004 04 05    12 35.77   +01 10.9    0.106    1.105   171.0     8.2    17.3
2004 04 15    13 13.13   -04 18.2    0.099    1.102   172.5     6.8    17.1
2004 04 25    13 53.84   -10 14.4    0.102    1.107   174.8     4.7    17.1
2004 05 05    14 31.94   -15 22.1    0.113    1.122   175.7     3.8    17.3
2004 05 15    15 03.13   -19 02.0    0.134    1.144   174.0     5.3    17.8
2004 05 25    15 27.00   -21 22.3    0.162    1.173   170.4     8.3    18.4
2004 06 04    15 45.69   -22 48.5    0.200    1.209   165.4    12.2    19.0
2004 06 14    16 01.24   -23 41.0    0.246    1.249   159.6    16.5    19.7
2004 06 24    16 15.48   -24 14.4    0.302    1.293   153.4    20.6    20.4
2004 07 04    16 29.68   -24 37.5    0.368    1.340   147.1    24.3    21.0
2004 07 14    16 44.31   -24 54.1    0.444    1.390   141.0    27.4    21.6

Timothy B. Spahr             (C) Copyright 2004 MPC           M.P.E.C. 2004-D11

Read MPEC 2004-D10 Read MPEC 2004-D12


Our Web policy. Index to the CBAT/MPC/ICQ pages.


Valid HTML 4.01!